Time,TemperatureF,DewpointF,PressureIn,WindDirection,WindDirectionDegrees,WindSpeedMPH,WindSpeedGustMPH,Humidity,HourlyPrecipIn,Conditions,Clouds,dailyrainin,SoftwareType,DateUTC
2013-10-21 00:14:00,42.0,41.0,30.14,WSW,250,0.0,-999.0,95,-99.99,,,-99.99,,2013-10-21 04:14:00,
2013-10-21 00:24:00,41.0,40.0,30.15,WSW,250,0.0,-999.0,95,-99.99,,,-99.99,,2013-10-21 04:24:00,
2013-10-21 00:44:00,41.0,40.0,30.15,WSW,250,0.0,-999.0,95,-99.99,,,-99.99,,2013-10-21 04:44:00,
2013-10-21 00:53:00,41.0,40.0,30.15,WSW,250,0.0,-999.0,95,-99.99,,,-99.99,,2013-10-21 04:53:00,
2013-10-21 01:23:00,40.0,39.0,30.15,WSW,250,0.0,-999.0,95,-99.99,,,-99.99,,2013-10-21 05:23:00,
2013-10-21 01:43:00,40.0,39.0,30.14,WSW,250,0.0,-999.0,95,-99.99,,,-99.99,,2013-10-21 05:43:00,
2013-10-21 01:52:00,40.0,39.0,30.14,WSW,250,0.0,-999.0,95,-99.99,,,-99.99,,2013-10-21 05:52:00,
2013-10-21 02:22:00,39.0,38.0,30.14,WSW,250,0.0,-999.0,95,-99.99,,,-99.99,,2013-10-21 06:22:00,
2013-10-21 02:42:00,39.0,38.0,30.14,WSW,250,0.0,-999.0,95,-99.99,,,-99.99,,2013-10-21 06:42:00,
2013-10-21 02:52:00,38.0,37.0,30.15,WSW,250,0.0,-999.0,95,-99.99,,,-99.99,,2013-10-21 06:52:00,
2013-10-21 03:22:00,39.0,38.0,30.15,WSW,250,0.0,-999.0,96,-99.99,,,-99.99,,2013-10-21 07:22:00,
2013-10-21 03:42:00,38.0,37.0,30.15,WSW,250,0.0,-999.0,96,-99.99,,,-99.99,,2013-10-21 07:42:00,
2013-10-21 03:52:00,39.0,38.0,30.14,WSW,250,0.0,-999.0,96,-99.99,,,-99.99,,2013-10-21 07:52:00,
2013-10-21 04:22:00,38.0,37.0,30.15,WSW,250,0.0,-999.0,96,-99.99,,,-99.99,,2013-10-21 08:22:00,
2013-10-21 04:52:00,39.0,38.0,30.16,WSW,250,0.0,-999.0,96,-99.99,,,-99.99,,2013-10-21 08:52:00,
2013-10-21 05:22:00,39.0,38.0,30.16,WSW,250,0.0,-999.0,96,-99.99,,,-99.99,,2013-10-21 09:22:00,
2013-10-21 05:53:00,40.0,39.0,30.16,WSW,250,0.0,-999.0,96,-99.99,,,-99.99,,2013-10-21 09:53:00,
2013-10-21 06:23:00,40.0,39.0,30.16,WSW,250,0.0,-999.0,96,-99.99,,,-99.99,,2013-10-21 10:23:00,
2013-10-21 06:43:00,41.0,40.0,30.17,WSW,250,0.0,-999.0,96,-99.99,,,-99.99,,2013-10-21 10:43:00,
2013-10-21 06:52:00,41.0,40.0,30.17,WSW,250,0.0,-999.0,96,-99.99,,,-99.99,,2013-10-21 10:52:00,
2013-10-21 07:22:00,42.0,41.0,30.17,WSW,250,0.0,-999.0,98,-99.99,,,-99.99,,2013-10-21 11:22:00,
2013-10-21 07:42:00,42.0,41.0,30.17,WSW,250,0.0,-999.0,97,-99.99,,,-99.99,,2013-10-21 11:42:00,
2013-10-21 07:52:00,42.0,41.0,30.17,WSW,250,0.0,-999.0,96,-99.99,,,-99.99,,2013-10-21 11:52:00,
2013-10-21 08:22:00,41.0,40.0,30.18,WSW,250,1.0,-999.0,96,-99.99,,,-99.99,,2013-10-21 12:22:00,
2013-10-21 08:42:00,41.0,40.0,30.18,WSW,250,0.0,-999.0,97,-99.99,,,-99.99,,2013-10-21 12:42:00,
2013-10-21 08:52:00,41.0,40.0,30.19,WSW,250,0.0,-999.0,96,-99.99,,,-99.99,,2013-10-21 12:52:00,
2013-10-21 09:11:00,41.0,40.0,30.19,WSW,250,0.0,-999.0,97,-99.99,,,-99.99,,2013-10-21 13:11:00,
2013-10-21 09:22:00,42.0,41.0,30.19,WSW,250,0.0,-999.0,97,-99.99,,,-99.99,,2013-10-21 13:22:00,
2013-10-21 09:42:00,43.0,42.0,30.20,WSW,250,0.0,-999.0,98,-99.99,,,-99.99,,2013-10-21 13:42:00,
2013-10-21 09:52:00,45.0,44.0,30.20,WSW,250,0.0,-999.0,98,-99.99,,,-99.99,,2013-10-21 13:52:00,
2013-10-21 10:22:00,51.0,50.0,30.21,SSE,159,1.0,-999.0,95,-99.99,,,-99.99,,2013-10-21 14:22:00,
2013-10-21 10:42:00,52.0,49.0,30.21,SE,136,1.0,-999.0,90,-99.99,,,-99.99,,2013-10-21 14:42:00,
2013-10-21 10:52:00,54.0,50.0,30.20,East,87,1.0,-999.0,87,-99.99,,,-99.99,,2013-10-21 14:52:00,
2013-10-21 11:21:00,56.0,51.0,30.20,ENE,75,1.0,-999.0,82,-99.99,,,-99.99,,2013-10-21 15:21:00,
2013-10-21 11:53:00,58.0,52.0,30.19,NNE,29,1.0,-999.0,80,-99.99,,,-99.99,,2013-10-21 15:53:00,
2013-10-21 12:23:00,59.0,51.0,30.19,ENE,73,1.0,-999.0,76,-99.99,,,-99.99,,2013-10-21 16:23:00,
2013-10-21 12:43:00,60.0,52.0,30.18,SW,220,1.0,-999.0,76,-99.99,,,-99.99,,2013-10-21 16:43:00,
2013-10-21 12:53:00,61.0,52.0,30.18,SW,222,2.0,-999.0,72,-99.99,,,-99.99,,2013-10-21 16:53:00,
2013-10-21 13:22:00,64.0,53.0,30.17,SSW,200,1.0,-999.0,68,-99.99,,,-99.99,,2013-10-21 17:22:00,
2013-10-21 13:43:00,63.0,53.0,30.16,SSW,205,1.0,-999.0,69,-99.99,,,-99.99,,2013-10-21 17:43:00,
2013-10-21 13:53:00,64.0,52.0,30.15,SSW,211,1.0,-999.0,64,-99.99,,,-99.99,,2013-10-21 17:53:00,
2013-10-21 14:12:00,65.0,51.0,30.14,SW,225,1.0,-999.0,61,-99.99,,,-99.99,,2013-10-21 18:12:00,
2013-10-21 14:22:00,66.0,53.0,30.14,WSW,254,1.0,-999.0,62,-99.99,,,-99.99,,2013-10-21 18:22:00,
2013-10-21 14:42:00,67.0,51.0,30.13,WNW,294,1.0,-999.0,57,-99.99,,,-99.99,,2013-10-21 18:42:00,
2013-10-21 14:52:00,66.0,51.0,30.12,SSW,200,1.0,-999.0,58,-99.99,,,-99.99,,2013-10-21 18:52:00,
2013-10-21 15:22:00,64.0,51.0,30.11,East,94,1.0,-999.0,63,-99.99,,,-99.99,,2013-10-21 19:22:00,
2013-10-21 15:52:00,65.0,51.0,30.10,West,271,1.0,-999.0,61,-99.99,,,-99.99,,2013-10-21 19:52:00,
2013-10-21 16:22:00,64.0,51.0,30.09,SSW,213,1.0,-999.0,63,-99.99,,,-99.99,,2013-10-21 20:22:00,
2013-10-21 16:52:00,64.0,52.0,30.09,WSW,252,1.0,-999.0,66,-99.99,,,-99.99,,2013-10-21 20:52:00,
2013-10-21 17:22:00,63.0,53.0,30.10,SW,234,1.0,-999.0,70,-99.99,,,-99.99,,2013-10-21 21:22:00,
2013-10-21 17:54:00,63.0,54.0,30.10,SSW,203,1.0,-999.0,72,-99.99,,,-99.99,,2013-10-21 21:54:00,
2013-10-21 18:24:00,61.0,54.0,30.10,SW,234,1.0,-999.0,77,-99.99,,,-99.99,,2013-10-21 22:24:00,
2013-10-21 18:44:00,61.0,54.0,30.10,SW,234,0.0,-999.0,79,-99.99,,,-99.99,,2013-10-21 22:44:00,
2013-10-21 18:53:00,60.0,54.0,30.10,SW,234,0.0,-999.0,81,-99.99,,,-99.99,,2013-10-21 22:53:00,
2013-10-21 19:22:00,58.0,54.0,30.10,SW,234,0.0,-999.0,86,-99.99,,,-99.99,,2013-10-21 23:22:00,
2013-10-21 19:53:00,56.0,53.0,30.11,SW,234,0.0,-999.0,89,-99.99,,,-99.99,,2013-10-21 23:53:00,
2013-10-21 20:22:00,54.0,52.0,30.11,SW,234,0.0,-999.0,92,-99.99,,,-99.99,,2013-10-22 00:22:00,
2013-10-21 20:53:00,54.0,52.0,30.10,SW,234,0.0,-999.0,94,-99.99,,,-99.99,,2013-10-22 00:53:00,
2013-10-21 21:22:00,53.0,51.0,30.10,SW,234,0.0,-999.0,94,-99.99,,,-99.99,,2013-10-22 01:22:00,
2013-10-21 21:52:00,53.0,52.0,30.10,SW,234,0.0,-999.0,95,-99.99,,,-99.99,,2013-10-22 01:52:00,
2013-10-21 22:22:00,52.0,51.0,30.09,SW,234,0.0,-999.0,95,-99.99,,,-99.99,,2013-10-22 02:22:00,
2013-10-21 22:52:00,52.0,51.0,30.09,SW,234,0.0,-999.0,96,-99.99,,,-99.99,,2013-10-22 02:52:00,
2013-10-21 23:23:00,52.0,51.0,30.10,SW,234,0.0,-999.0,95,-99.99,,,-99.99,,2013-10-22 03:23:00,
2013-10-21 23:55:00,52.0,51.0,30.11,SW,234,0.0,-999.0,96,-99.99,,,-99.99,,2013-10-22 03:55:00,